Naples, Italy

8:46 AM CEST on September 26, 2016 (GMT +0200)
Capodichino Mil

Weather History for LIRN - February, 2013

Change the Weather History Date:

Saturday, February 16, 2013

  Actual Average Record
Temperature  
Mean Temperature 50 °F -  
Max Temperature 55 °F 56 °F 75 °F (2016)
Min Temperature 44 °F 40 °F 32 °F (2009)
Degree Days  
Heating Degree Days 16    
Moisture  
Dew Point 40 °F    
Average Humidity 70    
Maximum Humidity 93    
Minimum Humidity 51    
Precipitation  
Precipitation 0.00 in - - ()
Sea Level Pressure  
Sea Level Pressure 30.00 in    
Wind  
Wind Speed 5 mph ()    
Max Wind Speed 12 mph    
Max Gust Speed -    
Visibility 5.6 miles    
Events Rain    
Averages and records for this station are not official NWS values.
T = Trace of Precipitation, MM = Missing Value Source: Averaged Metar Reports

Daily Weather History Graph

Daily Weather History Graph

Search for Another Location

Airport or City:

Trip Planner

Search our weather history database for the weather conditions in past years. The results will help you decide how hot, cold, wet, or windy it might be!

Date:

Astronomy

Feb. 16, 2013 Rise Set
Actual Time 6:55 AM CET 5:38 PM CET
Civil Twilight 6:27 AM CET 6:06 PM CET
Nautical Twilight 5:55 AM CET 6:38 PM CET
Astronomical Twilight 5:23 AM CET 7:10 PM CET
Moon 9:54 AM CET (2/16) No Moon Set
Length of Visible Light 11h 39m
Length of Day
10h 42m
Waxing Crescent, 37% of the Moon is Illuminated
Feb 16
Waxing Crescent
Feb 17
First Quarter
Feb 25
Full
Mar 4
Last Quarter
Mar 11
New

Hourly Weather History & Observations

Time (CET) Temp. Windchill Dew Point Humidity Pressure Visibility Wind Dir Wind Speed Gust Speed Precip Events Conditions
12:20 AM 48.2 °F - 46.4 °F 93% 29.98 in 4.3 mi South 4.6 mph - N/A Rain Light Rain
12:50 AM 48.2 °F - 44.6 °F 87% 29.98 in 3.7 mi SSE 3.5 mph - N/A Rain Light Rain
1:20 AM 46.4 °F - 44.6 °F 93% 29.98 in 3.7 mi Calm Calm - N/A   Mostly Cloudy
1:50 AM 46.4 °F 45.2 °F 44.6 °F 93% 29.98 in 3.7 mi NNE 3.5 mph - N/A   Drizzle
2:20 AM 46.4 °F 45.2 °F 44.6 °F 93% 29.98 in 3.7 mi NNE 3.5 mph - N/A   Drizzle
2:50 AM 46.4 °F 45.2 °F 42.8 °F 87% 29.98 in 3.7 mi East 3.5 mph - N/A   Drizzle
3:20 AM 44.6 °F 41.4 °F 41.0 °F 87% 29.98 in 4.3 mi ENE 5.8 mph - N/A   Mostly Cloudy
3:50 AM 44.6 °F 41.4 °F 41.0 °F 87% 29.95 in 4.3 mi NNE 5.8 mph - N/A   Mostly Cloudy
4:20 AM 46.4 °F 42.9 °F 42.8 °F 87% 29.95 in 4.3 mi NNE 6.9 mph - N/A   Mostly Cloudy
4:50 AM 44.6 °F 41.4 °F 41.0 °F 87% 29.95 in 4.3 mi North 5.8 mph - N/A   Mostly Cloudy
5:20 AM 44.6 °F 41.4 °F 41.0 °F 87% 29.95 in 4.3 mi North 5.8 mph - N/A   Mostly Cloudy
5:50 AM 44.6 °F 40.7 °F 41.0 °F 87% 29.95 in 5.0 mi North 6.9 mph - N/A   Mostly Cloudy
6:20 AM 44.6 °F 41.4 °F 39.2 °F 81% 29.98 in 5.0 mi NE 5.8 mph - N/A   Mostly Cloudy
6:50 AM 44.6 °F - 39.2 °F 81% 29.98 in 6.2 mi Variable 2.3 mph - N/A   Mostly Cloudy
7:20 AM 44.6 °F 41.4 °F 39.2 °F 81% 29.98 in 6.2 mi NNE 5.8 mph - N/A   Mostly Cloudy
7:50 AM 44.6 °F 42.2 °F 39.2 °F 81% 29.98 in 6.2 mi NNE 4.6 mph - N/A   Mostly Cloudy
8:20 AM 48.2 °F - 41.0 °F 76% 29.98 in 6.2 mi NNE 4.6 mph - N/A   Scattered Clouds
8:50 AM 48.2 °F - 39.2 °F 71% 30.01 in 6.2 mi NNE 4.6 mph - N/A   Partly Cloudy
9:20 AM 50.0 °F - 41.0 °F 71% 30.01 in 6.2 mi NE 6.9 mph - N/A   Partly Cloudy
9:50 AM 51.8 °F - 39.2 °F 62% 30.01 in 6.2 mi ENE 9.2 mph - N/A   Partly Cloudy
10:20 AM 51.8 °F - 39.2 °F 62% 30.01 in 6.2 mi ENE 8.1 mph - N/A   Partly Cloudy
10:50 AM 51.8 °F - 39.2 °F 62% 30.01 in 6.2 mi ENE 6.9 mph - N/A   Partly Cloudy
11:20 AM 53.6 °F - 39.2 °F 58% 30.04 in 6.2 mi ENE 8.1 mph - N/A   Partly Cloudy
11:50 AM 53.6 °F - 41.0 °F 62% 30.01 in 6.2 mi ENE 6.9 mph - N/A   Partly Cloudy
12:20 PM 53.6 °F - 39.2 °F 58% 30.01 in 6.2 mi NE 9.2 mph - N/A   Partly Cloudy
12:50 PM 55.4 °F - 39.2 °F 54% 30.01 in 6.2 mi NE 8.1 mph - N/A   Partly Cloudy
1:20 PM 53.6 °F - 39.2 °F 58% 30.01 in 6.2 mi NE 8.1 mph - N/A   Partly Cloudy
1:50 PM 55.4 °F - 37.4 °F 51% 30.01 in 6.2 mi NE 9.2 mph - N/A   Partly Cloudy
2:20 PM 55.4 °F - 39.2 °F 54% 30.01 in - ENE 8.1 mph - N/A   Unknown
2:50 PM 53.6 °F - 37.4 °F 54% 30.01 in 6.2 mi NE 11.5 mph - N/A   Partly Cloudy
3:20 PM 53.6 °F - 39.2 °F 58% 30.01 in 6.2 mi ENE 8.1 mph - N/A   Partly Cloudy
3:50 PM 53.6 °F - 39.2 °F 58% 30.01 in 6.2 mi ENE 8.1 mph - N/A   Partly Cloudy
4:20 PM 53.6 °F - 37.4 °F 54% 30.01 in 6.2 mi East 8.1 mph - N/A   Scattered Clouds
4:50 PM 51.8 °F - 37.4 °F 58% 30.01 in 6.2 mi East 6.9 mph - N/A   Scattered Clouds
5:20 PM 51.8 °F - 37.4 °F 58% 30.01 in 6.2 mi East 4.6 mph - N/A   Scattered Clouds
5:50 PM 51.8 °F - 37.4 °F 58% 30.04 in 6.2 mi East 3.5 mph - N/A   Scattered Clouds
6:20 PM 51.8 °F - 37.4 °F 58% 30.04 in 6.2 mi ENE 4.6 mph - N/A   Scattered Clouds
6:50 PM 50.0 °F - 37.4 °F 62% 30.04 in 6.2 mi ENE 4.6 mph - N/A   Scattered Clouds
7:20 PM 50.0 °F - 37.4 °F 62% 30.04 in 6.2 mi ENE 5.8 mph - N/A   Scattered Clouds
7:50 PM 50.0 °F - 37.4 °F 62% 30.04 in 6.2 mi NNE 4.6 mph - N/A   Scattered Clouds
8:20 PM 50.0 °F - 37.4 °F 62% 30.04 in 6.2 mi North 4.6 mph - N/A   Mostly Cloudy
8:50 PM 50.0 °F - 37.4 °F 62% 30.04 in 6.2 mi North 5.8 mph - N/A   Mostly Cloudy
9:20 PM 50.0 °F - 37.4 °F 62% 30.04 in 6.2 mi North 4.6 mph - N/A   Mostly Cloudy
9:50 PM 48.2 °F - 37.4 °F 66% 30.04 in 6.2 mi North 3.5 mph - N/A   Scattered Clouds
10:20 PM 48.2 °F - 37.4 °F 66% 30.04 in 6.2 mi North 4.6 mph - N/A   Scattered Clouds
10:50 PM 48.2 °F - 37.4 °F 66% 30.04 in 6.2 mi North 4.6 mph - N/A   Scattered Clouds
11:20 PM 48.2 °F - 35.6 °F 62% 30.04 in 6.2 mi NNE 4.6 mph - N/A   Scattered Clouds
11:50 PM 46.4 °F 44.3 °F 35.6 °F 66% 30.04 in 6.2 mi NNE 4.6 mph - N/A   Scattered Clouds